This is the latest recevied weather packets stored in our database for station/object EA2MKR. If no packets are shown the sender has not sent any weather packets the latest 10 day(s).
| Time | Temp. | Humidity | Pressure | Rain* | Wind** | Luminosity | Snow |
|---|---|---|---|---|---|---|---|
| 1777748863 | 12.22° C | 95% | 952.2 hPa | 1.78 mm | - | - | - |
| 1777748562 | 12.22° C | 95% | 952.1 hPa | 2.03 mm | - | - | - |
| 1777748263 | 12.22° C | 94% | 951.9 hPa | 2.54 mm | - | - | - |
| 1777747962 | 12.22° C | 94% | 952 hPa | 3.3 mm | - | - | - |
| 1777747663 | 12.22° C | 94% | 951.9 hPa | 3.81 mm | - | - | - |
| 1777747362 | 12.22° C | 94% | 951.9 hPa | 4.06 mm | - | - | - |
| 1777747062 | 12.22° C | 94% | 951.9 hPa | 4.57 mm | - | - | - |
| 1777746758 | 12.22° C | 94% | 951.8 hPa | 5.33 mm | - | - | - |
| 1777746458 | 12.22° C | 94% | 951.8 hPa | 6.1 mm | - | - | - |
| 1777746283 | 12.22° C | 94% | 951.8 hPa | 7.37 mm | - | - | - |
| 1777745858 | 12.22° C | 94% | 952 hPa | 9.65 mm | - | - | - |
| 1777745559 | 12.22° C | 94% | 952.3 hPa | 9.91 mm | - | - | - |
| 1777745258 | 12.22° C | 94% | 952.4 hPa | 9.14 mm | - | - | - |
| 1777744958 | 12.78° C | 93% | 952.7 hPa | 8.89 mm | - | - | - |
| 1777744658 | 12.78° C | 93% | 952.8 hPa | 8.38 mm | - | - | - |
| 1777744358 | 12.78° C | 93% | 952.8 hPa | 7.87 mm | - | - | - |
| 1777744183 | 12.78° C | 94% | 953.1 hPa | 7.11 mm | - | - | - |
| 1777743758 | 12.78° C | 94% | 953.1 hPa | 6.86 mm | - | - | - |
| 1777743459 | 12.78° C | 94% | 953.2 hPa | 6.1 mm | - | - | - |
| 1777743159 | 12.78° C | 94% | 953.1 hPa | 5.33 mm | - | - | - |
| 1777742859 | 12.78° C | 93% | 953.7 hPa | 4.57 mm | - | - | - |
| 1777742559 | 12.78° C | 93% | 954 hPa | 3.05 mm | - | - | - |
| 1777742258 | 12.78° C | 93% | 953.7 hPa | 0.76 mm | - | - | - |
| 1777741958 | 12.78° C | 93% | 953.3 hPa | 0.25 mm | - | - | - |
| 1777741658 | 12.78° C | 93% | 953.1 hPa | 0.51 mm | - | - | - |
* Rain latest hour (hover to see other rain measurements)
** Current wind speed in m/s (hover to see current wind gust speed)